Погода в Колесникове

Россия / Рязанская область     54°59′31″N   40°49′41″E
темп.,
°C
ветер,
м/с
пор.,
м/с
влажн.,
%
обл.,
%
осадки,
мм/ч
давл.,
гПа
погр.,
м
22 сентября, ср
ср2200:00+6всв4997100 3.0 1011524
03:00+6всв3898100 5.1 1010456
06:00+6всв2698100 1.1 1010413
09:00+7в2597100 0.9 1010353
12:00+9юв2493100 0.0 1011461
15:00+10ююв1390100 0.3 1011352
18:00+10всв2492100 0.1 1013120
21:00+8всв379554 0.3 1014205
23 сентября, чт
чт2300:00+9в2796100 0.1 1013226
03:00+8вюв399798 0.3 1014244
06:00+8в2297100 0.8 101373
09:00+8всв2699100 3.9 1013361
12:00+9ююв1297100 0.3 1013244
15:00+12ююв1385100 0.5 1012128
18:00+9юв2393100 0.1 101266
21:00+9ю2493100 0.4 101297
24 сентября, пт
пт2400:00+8ю2794100 0.0 1011200
03:00+6ююв2696100 0.0 1010154
06:00+6ююв399525 0.0 1010300
09:00+8ююв4988100 0.0 1010718
12:00+10ююв4980100 0.0 10091012
15:00+11ю4967100 0.2 10071405
18:00+10ююв31075100 0.1 1007784
21:00+9ююв31073100 0.1 1007563
25 сентября, сб
сб2500:00+9юв3874100 0.0 1007274
03:00+8юв268098 0.0 1003170
06:00+8юв2375100 0.0 100790
09:00+11юв126690 0.0 1008292
12:00+13ю235523 0.0 10081043
15:00+12зюз3467100 0.1 1008347
18:00+10зюз2380100 0.0 101080
21:00+9з1384100 0.0 101081
26 сентября, вс
вс2600:00+9юз1187100 0.0 101037
03:00+8ююз1188100 0.0 101040
06:00+8юз2394100 0.2 101065
09:00+10зюз0178100 0.3 1010225
12:00+10юз1280100 0.5 1010274
15:00+11ссз1281100 0.9 1011239
18:00+10с2685100 0.4 1013192
21:00+9ссв4992100 0.8 1014435